Location: Ergnies
(50.0854°N, 2.0375°E)
Time: 10:28:07
(UTC+00:00)

Cosmos 1328 - Pass Details

Date: 14 January 2026
Orbit: 461 x 472 km, 82.5° (Epoch: 10 February)

Event Time Altitude Azimuth Distance (km) Brightness Sun altitude
Exits shadow 06:23:13 - 352° (N) 2,549 7.0 -12.7°
Rises 06:23:17 0° 352° (N) 2,524 6.9 -12.7°
Reaches altitude 10° 06:25:24 10° 357° (N) 1,644 6.0 -12.4°
Maximum altitude 06:28:57 59° 78° (ENE) 550 4.1 -11.9°
Drops below altitude 10° 06:32:29 10° 159° (SSE) 1,638 6.8 -11.3°
Sets 06:34:35 0° 163° (SSE) 2,512 7.8 -11.0°
